Regional Weather Roundup
Issued by NWS

Home | Current Version | Previous Version | Text Only | Print | Product List | Glossary On
Versions: 1 2 3 4 5 6 7 8 9 10 11 12 13 14 15 16 17 18 19 20 21 22 23 24 25 26 27 28 29 30 31 32 33 34 35 36 37 38 39 40 41 42 43 44 45 46 47 48 49 50
512
ASUS44 KLIX 201201
RWRLA
LOUISIANA WEATHER ROUNDUP
NATIONAL WEATHER SERVICE NEW ORLEANS LA
700 AM CDT WED AUG 20 2014

NOTE: "FAIR" INDICATES FEW OR NO CLOUDS BELOW 12,000 FEET WITH NO
      SIGNIFICANT WEATHER AND/OR OBSTRUCTIONS TO VISIBILITY.
      SKY/WX - SKY CONDITION AND SIGNIFICANT WEATHER.
      TMP - AIR TEMPERATURE.    DP   - DEWPOINT TEMPERATURE.
      RH  - RELATIVE HUMIDITY.  PRES - PRESSURE.
      HX  - HEAT INDEX.         WCI  - WIND CHILL INDEX.

*  THESE STATIONS ARE NOT NWS OR FAA STATIONS AND ARE NOT UNDER
   NWS QUALITY CONTROL.

LAZ040-048-061>063-065-066-069-201300-
SOUTHEAST LOUISIANA

CITY           SKY/WX    TMP DP  RH WIND       PRES   REMARKS
N.O. AUDUBON   NOT AVBL
N.O. INTL ARPT MOCLDY    78  75  90 CALM      30.03R
6HR MIN TEMP:  77; 6HR MAX TEMP:  80;

N.O. LAKEFRONT PTCLDY    81  76  84 CALM      30.03R
6HR MIN TEMP:  79; 6HR MAX TEMP:  82;

N.O. DOWNTOWN* FAIR      82  73  74 CALM      30.04R
6HR MIN TEMP:  81; 6HR MAX TEMP:  84;

SLIDELL        PTCLDY    74  72  93 CALM      30.03R
6HR MIN TEMP:  74; 6HR MAX TEMP:  78;

BATON ROUGE    PTCLDY    73  70  90 NE3       30.03R
6HR MIN TEMP:  72; 6HR MAX TEMP:  74;

BOOTHVILLE     CLEAR     84  77  79 SW7       30.04R
6HR MIN TEMP:  83; 6HR MAX TEMP:  85;

BELLE CHASSE   MOCLDY    75  72  90 CALM      30.02R
6HR MIN TEMP:  74; 6HR MAX TEMP:  78;

BOGALUSA*        N/A     75  71  88 CALM      30.05R
6HR MIN TEMP:  74; 6HR MAX TEMP:  77;

GALLIANO*      NOT AVBL
NEW ROADS*     FAIR      71  70  98 MISG      30.03R
6HR MIN TEMP:  69; 6HR MAX TEMP:  73;

GONZALES*      FAIR      73  73 100 CALM      30.02R
6HR MIN TEMP:  72; 6HR MAX TEMP:  76;

HAMMOND*       NOT AVBL
HOUMA*         PTCLDY    73  72  94 CALM      30.02R
PORT FOURCHON* SUNNY     86  75  70 SW6       30.04R HX  95

$$

LAZ041-044-053-054-201300-
SOUTHWEST LOUISIANA

CITY           SKY/WX    TMP DP  RH WIND       PRES   REMARKS
LAKE CHARLES   PTCLDY    74  72  93 E3        30.00R
6HR MIN TEMP:  74; 6HR MAX TEMP:  75;

LAFAYETTE      CLEAR     74  72  93 CALM      30.02R
6HR MIN TEMP:  73; 6HR MAX TEMP:  76;

PATTERSON      PTCLDY   N/A N/A N/A MISG        N/A
SALT POINT       N/A     87  78  74 VRB3      30.01R HX 100
6HR MIN TEMP:  80; 6HR MAX TEMP:  87; 6HR PCP:  0.06;

NEW IBERIA     PTCLDY    75  73  93 NW3       30.02R
6HR MIN TEMP:  73; 6HR MAX TEMP:  75;

CHENAULT AIRPK NOT AVBL

$$

LAZ027-028-201300-
CENTRAL LOUISIANA

CITY           SKY/WX    TMP DP  RH WIND       PRES   REMARKS
FORT POLK      CLEAR     72  70  93 CALM      30.01R
6HR MIN TEMP:  71; 6HR MAX TEMP:  74;

ALEXANDRIA INT PTCLDY    73  70  90 SE6       30.00R
6HR MIN TEMP:  71; 6HR MAX TEMP:  75;

ALEXANDRIA     MOCLDY    73  70  90 CALM      30.02R
6HR MIN TEMP:  72; 6HR MAX TEMP:  75;


$$

LAZ001-002-201300-
NORTHWEST LOUISIANA

CITY           SKY/WX    TMP DP  RH WIND       PRES   REMARKS
SHREVEPORT     PTCLDY    72  69  90 SE3       29.99R
6HR MIN TEMP:  71; 6HR MAX TEMP:  76;

BARKSDALE AFB  PTCLDY    71  70  97 SE2       30.00R
6HR MIN TEMP:  70; 6HR MAX TEMP:  73;

DTN SHREVEPORT PTCLDY    74  69  85 SE5       30.00R
6HR MIN TEMP:  73; 6HR MAX TEMP:  79;


$$

LAZ014-016-201300-
NORTHEAST LOUISIANA

CITY           SKY/WX    TMP DP  RH WIND       PRES   REMARKS
MONROE         PTCLDY    72  70  93 CALM      30.03R
6HR MIN TEMP:  72; 6HR MAX TEMP:  75;

TALLULAH       PTCLDY    72  70  93 CALM      30.03R
6HR MIN TEMP:  71; 6HR MAX TEMP:  75;


$$




USA.gov is the U.S. government's official web portal to all federal, state and local government web resources and services.